Location: Banksville Park
(38.5557°N, 75.1182°W)
Time: 18:00:44
(UTC+00:00)

SAR-Lupe-1 - Pass Details

Date: 23 January 2021
Orbit: 482 x 484 km, 98.2° (Epoch: 02 March)

Event Time Altitude Azimuth Distance (km) Brightness Sun altitude
Exits shadow 00:09:40 11° 349° (N) 1,608 6.7 -23.0°
Maximum altitude 00:12:40 30° 289° (WNW) 893 5.9 -23.5°
Drops below altitude 10° 00:15:48 10° 227° (SW) 1,657 7.4 -24.2°
Sets 00:18:01 0° 216° (SW) 2,532 8.3 -24.6°
